Skip Page Navigation
NASA JPL Caltech
NASA Logo - Jet Propulsion Laboratory + View the NASA Portal
+ Center for Near-Earth Object Studies
JPL Home Earth Solar System Stars & Galaxies Technology
JPL Solar System Dynamics
BODIES ORBITS EPHEMERIDES TOOLS PHYSICAL DATA DISCOVERY FAQ SITE MAP
IMPORTANT: The SSD Announcement email list is now available. Major changes are coming in the near future, including possible hostname and/or URL changes. To be notified of such changes, subscribe to this email list.

Please visit this page for more details.


JPL Small-Body Database Browser
Search: [ help ]  
32461 (2000 SP93)
Classification: Jupiter Trojan          SPK-ID: 2032461
Ephemeris | Orbit Diagram | Orbital Elements | Mission Design | Physical Parameters | Discovery Circumstances ]

[ show orbit diagram ]
Orbital Elements at Epoch 2458600.5 (2019-Apr-27.0) TDB
Reference: JPL 14 (heliocentric ecliptic J2000)
 Element Value Uncertainty (1-sigma)   Units 
e .06795990149228277 7.753e-08  
a 5.150000031422324 1.2737e-07 au
q 4.800006536601609 4.2164e-07 au
i 30.88766532396089 1.0107e-05 deg
node 188.754106469747 1.229e-05 deg
peri 146.8351424732035 7.2668e-05 deg
M 227.2582506319488 7.6567e-05 deg
tp 2460174.534729616806
(2023-Aug-18.03472962)
0.00094011 TDB
period 4268.834073377328
11.69
0.00015837
4.336e-07
d
yr
n .08433216044754407 3.1287e-09 deg/d
Q 5.499993526243038 1.3603e-07 au
  Orbit Determination Parameters
   # obs. used (total)      525  
   data-arc span      10808 days (29.59 yr)  
   first obs. used      1989-10-07  
   last obs. used      2019-05-11  
   planetary ephem.      DE431  
   SB-pert. ephem.      SB431-N16  
   condition code      0  
   norm. resid. RMS      .58462  
   source      ORB  
   producer      Otto Matic  
   solution date      2019-May-30 03:43:54  

Additional Information
 Earth MOID = 3.82094 au 
 Jupiter MOID = .0338106 au 
 T_jup = 2.714 
[ show covariance matrix ]

Ephemeris | Orbit Diagram | Orbital Elements | Mission Design | Physical Parameters | Discovery Circumstances ]

Physical Parameter Table
Parameter Symbol Value Units Sigma Reference Notes
absolute magnitude H 11.9   n/a MPO395314  

32461 (2000 SP93)          Discovered 2000-Sep-23 by LINEAR at Socorro
Reference: 20011130/Numbers.arcLast Updated: 2004-04-19

Alternate Designations
 2000 SP93 = 1989 TG6 
Ephemeris | Orbit Diagram | Orbital Elements | Mission Design | Physical Parameters | Discovery Circumstances ]
ABOUT SSD CREDITS/AWARDS PRIVACY/COPYRIGHT GLOSSARY LINKS
FirstGov
(server date/time)  
NASA Home Page
Site Manager:   Ryan S. Park
Webmaster  Alan B. Chamberlin